Home   Weather   Gander   Past weeks

Flag for Canada Past Weather in Gander, Newfoundland and Labrador, Canada — Yesterday and Last 2 Weeks

Now
46 °F

Sprinkles. Partly cloudy.


Feels Like: 41 °F
Forecast: 47 / 61 °F
Wind: 13 mph from Southwest

Location: Gander Int. Airport

Current Time: Aug 31, 2016 at 5:33:09 AM

Latest Report: Aug 31, 2016 at 4:30 AM


Visibility: 15 mi

Pressure: 29.81 "Hg

Humidity: 87%

Dew Point: 43 °F

Location of GanderLocation

Past Weather in Gander — Graph

°F

Gander Temperature Yesterday

Maximum temperature yesterday: 59 °F (at 2:30 AM)
Minimum temperature yesterday: 45 °F (at 10:30 PM)
Average temperature yesterday: 52 °F

High & Low Weather Summary for the Past Weeks

 TemperatureHumidityPressure
High79 °F (Aug 23, 4:30 PM)100% (Aug 23, 4:30 AM)30.17 "Hg (Aug 23, 4:30 AM)
Low45 °F (Aug 30, 10:30 PM)35% (Aug 16, 4:30 PM)29.21 "Hg (Aug 30, 7:30 AM)
Average61 °F78%29.92 "Hg
* Reported Aug 16 4:30 AM — Aug 31 4:30 AM, Gander, Weather by CustomWeather, © 2016

Note: Actual official high and low records may vary slightly from our data, if they occured in-between our weather recording intervals... More about our weather records

Advertising

Gander Weather History for the Previous 24 Hours

Scroll right to see more
 ConditionsComfort  
Time TempWeatherWind HumidityBarometerVisibility
4:30 AM
Wed, Aug 31
46 °FSprinkles. Partly cloudy.13 mph87%29.81 "Hg15 mi
3:30 AM46 °FPassing clouds.15 mph87%29.81 "Hg15 mi
2:30 AM45 °FPassing clouds.10 mph93%29.82 "Hg15 mi
1:30 AM45 °FPassing clouds.9 mph93%29.83 "Hg15 mi
12:30 AM45 °FPassing clouds.9 mph93%29.83 "Hg15 mi
11:30 PM
Tue, Aug 30
46 °FPassing clouds.12 mph87%29.83 "Hg15 mi
10:30 PM45 °FPassing clouds.8 mph93%29.82 "Hg15 mi
9:30 PM46 °FPartly cloudy.10 mph93%29.81 "Hg15 mi
8:30 PM46 °FSprinkles. Passing clouds.13 mph93%29.79 "Hg20 mi
7:30 PM48 °FPartly sunny.13 mph82%29.77 "Hg15 mi
6:30 PM46 °FMore clouds than sun.15 mph93%29.75 "Hg20 mi
5:30 PM48 °FSprinkles. Fog.22 mph82%29.71 "Hg20 mi
4:30 PM50 °FPartly sunny.25 mph67%29.68 "Hg20 mi
3:30 PM48 °FBroken clouds.28 mph82%29.64 "Hg12 mi
3:18 PM46 °FMostly cloudy.28 mph87%29.63 "Hg12 mi
2:30 PM46 °FLight rain. Fog.29 mph93%29.60 "Hg4 mi
2:20 PM46 °FLight rain. Fog.29 mph93%29.60 "Hg4 mi
1:30 PM46 °FLight rain. Fog.29 mph93%29.55 "Hg4 mi
1:17 PM46 °FLight rain. Cloudy.31 mph93%29.54 "Hg8 mi
12:30 PM46 °FLight rain. Fog.30 mph93%29.51 "Hg5 mi
11:30 AM46 °FLight rain. Fog.32 mph100%29.45 "Hg2 mi
10:30 AM48 °FRain. Fog.31 mph94%29.39 "Hg2 mi
9:30 AM50 °FRain. Fog.25 mph94%29.32 "Hg4 mi
8:30 AM55 °FCool.22 mph94%29.24 "Hg2 mi
7:30 AM59 °FLight rain. Fog.9 mph100%29.21 "Hg4 mi
6:30 AM59 °FPassing clouds.6 mph94%29.22 "Hg15 mi
6:15 AM59 °FPassing clouds.8 mph94%29.22 "Hg15 mi
5:30 AM59 °FLight rain. Fog.7 mph100%29.24 "Hg15 mi
5:21 AM59 °FLight rain. Fog.8 mph100%29.24 "Hg12 mi
Weather by CustomWeather, © 2016

See weather overviewHow to use our weather pages